This demonstration page uses our WeatherBlox Daily Observations layout. Learn more.

Left ArrowRight Arrow

Hourly Observations for November 7, 2016

Temp ( °F °C ) Dew Point ( °F °C ) Humidity (%) Winds ( mph kmh ) Pressure ( in mb ) Visibility ( mi km ) Precip ( " mm )
12:07 am 00:07 Mostly Cloudy with Fog 62 16.7 61 16.1 96 96 SSE 9 15 29.97 1015 1 1 0.00 0.00
12:21 am 00:21 Mostly Cloudy with Fog 62 16.7 61 16.1 96 96 SSE 9 15 29.97 1015 0 0 0.00 0.00
12:33 am 00:33 Mostly Cloudy with Fog 62 16.7 61 16.1 96 96 S 6 9 29.97 1015 1 1 0.00 0.00
12:48 am 00:48 Cloudy with Mist and Fog 61 16 61 16 100 100 SSE 9 15 30.00 1016 1 2 0.00 0.00
12:53 am 00:53 Cloudy with Mist and Fog 61 16.1 61 16.1 100 100 SSE 6 9 29.95 1014 1 2 0.00 0.00
1:14 am 01:14 Mostly Cloudy with Fog 61 16 61 16 100 100 SSE 7 11 30.00 1016 1 1 0.00 0.00
1:32 am 01:32 Mostly Cloudy with Fog 61 16 61 16 100 100 SSE 5 7 30.00 1016 0 0 0.00 0.00
1:53 am 01:53 Mostly Cloudy with Fog 60 15.6 60 15.6 100 100 SSE 5 7 29.96 1014 0 0 0.00 0.00
2:20 am 02:20 Mostly Cloudy with Fog 61 16 61 16 100 100 Calm 30.00 1016 1 1 0.00 0.00
2:37 am 02:37 Mostly Cloudy with Fog 60 15.6 59 15 96 96 Calm 30.00 1016 0 0 0.00 0.00
2:53 am 02:53 Mostly Cloudy with Fog 60 15.6 59 15 96 96 Calm 29.96 1014 0 0 0.00 0.00
3:32 am 03:32 Mostly Cloudy with Mist and Fog 61 16 59 15 94 94 NNW 6 9 30.00 1016 1 2 0.00 0.00
3:35 am 03:35 Cloudy with Mist and Fog 60 15.6 59 15 96 96 N 6 9 30.00 1016 3 5 0.00 0.00
3:53 am 03:53 Cloudy with Mist and Fog 60 15.6 59 15 96 96 NNW 5 7 29.95 1014 5 8 0.00 0.00
4:53 am 04:53 Cloudy with Mist and Fog 59 15 58 14.4 96 96 NW 6 9 29.95 1014 5 8 0.00 0.00
5:34 am 05:34 Cloudy with Mist and Fog 59 15 57 14 94 94 NNW 3 6 30.00 1016 2 3 0.00 0.00
5:43 am 05:43 Mostly Cloudy with Fog 58 14.4 57 13.9 97 97 WNW 5 7 30.00 1016 0 0 0.00 0.00
5:53 am 05:53 Mostly Cloudy with Fog 58 14.4 58 14.4 100 100 NNW 5 7 29.98 1015 0 0 0.00 0.00
6:53 am 06:53 Mostly Cloudy with Fog 57 13.9 57 13.9 100 100 WNW 3 6 29.99 1016 0 0 0.00 0.00
7:53 am 07:53 Mostly Cloudy with Fog 56 13.3 56 13.3 100 100 NW 3 6 30.02 1017 5 8 0.00 0.00
8:34 am 08:34 Mostly Cloudy with Mist and Fog 57 14 55 13 94 94 N 3 6 30.09 1019 1 1 0.00 0.00
8:44 am 08:44 Mostly Cloudy with Mist and Fog 57 14 55 13 94 94 Calm 30.09 1019 3 4 0.00 0.00
8:49 am 08:49 Partly Cloudy 57 14 57 14 100 100 VRB 3 6 30.09 1019 9 14 0.00 0.00
8:53 am 08:53 Partly Cloudy 58 14.4 57 13.9 97 97 Calm 30.04 1017 10 16 0.00 0.00
9:53 am 09:53 Sunny 67 19.4 52 11.1 59 59 WNW 7 11 30.04 1017 10 16 0.00 0.00
10:53 am 10:53 Sunny 72 22.2 48 8.9 43 43 NNW 12 19 30.04 1017 10 16 0.00 0.00
11:53 am 11:53 Sunny 73 22.8 46 7.8 38 38 WNW 8 13 30.03 1017 10 16 0.00 0.00
12:53 pm 12:53 Sunny 75 23.9 49 9.4 40 40 WNW 8 13 30.01 1016 10 16 0.00 0.00
1:53 pm 13:53 Sunny 76 24.4 48 8.9 37 37 W 8 13 29.99 1016 10 16 0.00 0.00
2:53 pm 14:53 Sunny 77 25 47 8.3 35 35 NW 9 15 29.97 1015 10 16 0.00 0.00
3:53 pm 15:53 Sunny 78 25.6 47 8.3 33 33 NNW 6 9 29.97 1015 10 16 0.00 0.00
4:53 pm 16:53 Sunny 77 25 47 8.3 35 35 N 13 20 29.98 1015 10 16 0.00 0.00
5:53 pm 17:53 Sunny 70 21.1 53 11.7 55 55 NE 6 9 30.02 1017 10 16 0.00 0.00
6:53 pm 18:53 Clear 66 18.9 55 12.8 68 68 NE 9 15 30.06 1018 10 16 0.00 0.00
7:53 pm 19:53 Clear 64 17.8 54 12.2 70 70 NE 9 15 30.09 1019 10 16 0.00 0.00
8:53 pm 20:53 Clear 62 16.7 54 12.2 75 75 NNE 8 13 30.11 1020 10 16 0.00 0.00
9:53 pm 21:53 Clear 59 15 54 12.2 83 83 N 8 13 30.13 1020 10 16 0.00 0.00
10:53 pm 22:53 Clear 57 13.9 54 12.2 90 90 NNE 7 11 30.14 1021 9 14 0.00 0.00
11:53 pm 23:53 Clear 57 13.9 55 12.8 93 93 NE 7 11 30.16 1021 9 14 0.00 0.00

Powered by AerisWeather